Flag for U.S.A. Weather past 2 weeks in Nashville, Tennessee, U.S.A.

Now
11 °F

Clear.


Feels Like: 3 °F
Forecast: 11 / 34 °F
Wind: 5 mph from Northwest

Location: Nashville International Airport

Current Time: Mar 6, 2015 at 5:52:07 AM

Latest Report: Mar 6, 2015 at 4:53 AM


Visibility: 10 mi

Pressure: 30.58 "Hg

Humidity: 81%

Dew point: 6 °F

Location of NashvilleLocation

Historic Weather in Nashville — Graph

°F

Nashville temperature yesterday

Maximum temperature yesterday: 27 °F (at 2:53 PM)
Minimum temperature yesterday: 15 °F (at 11:53 PM)
Average temperature yesterday: 22 °F

Past Weeks' High & Low Weather Summary

 TemperatureHumidityPressure
High65 °F (Mar 4, 12:53 AM)100% (Feb 21, 11:58 AM)30.64 "Hg (Feb 21, 11:58 AM)
Low6 °F (Feb 19, 4:53 AM)36% (Feb 24, 2:53 PM)29.81 "Hg (Feb 25, 5:53 PM)
Average33 °F71%30.26 "Hg
* Reported Feb 19 4:53 AM — Mar 6 4:53 AM, Nashville, Weather by CustomWeather, © 2015

Note: Actual official high and low records may vary slightly from our data, if they occured in-between our weather recording intervals... More about our weather records

Advertising

Nashville weather history for previous 24 hours

 ConditionsComfort  
Time TempWeatherWind HumidityBarometerVisibility
4:53 AM
Fri, Mar 6
11 °FClear.5 mph81%30.58 "Hg10 mi
3:53 AM11 °FClear.No wind81%30.56 "Hg10 mi
2:53 AM12 °FClear.3 mph80%30.57 "Hg10 mi
1:53 AM13 °FClear.3 mph74%30.57 "Hg10 mi
12:53 AM14 °FClear.8 mph71%30.58 "Hg10 mi
11:53 PM
Thu, Mar 5
15 °FClear.8 mph67%30.58 "Hg10 mi
10:53 PM16 °FClear.9 mph67%30.59 "Hg10 mi
9:53 PM17 °FClear.8 mph64%30.59 "Hg10 mi
8:53 PM19 °FClear.8 mph62%30.57 "Hg10 mi
7:53 PM20 °FClear.8 mph65%30.56 "Hg10 mi
6:53 PM22 °FClear.9 mph66%30.54 "Hg10 mi
5:53 PM23 °FPassing clouds.9 mph65%30.52 "Hg10 mi
4:53 PM26 °FPassing clouds.10 mph63%30.50 "Hg10 mi
3:53 PM27 °FPartly sunny.14 mph61%30.47 "Hg10 mi
2:53 PM27 °FPartly sunny.15 mph69%30.46 "Hg10 mi
1:53 PM25 °FPartly sunny.10 mph75%30.45 "Hg10 mi
12:53 PM23 °FLight snow. Ice fog.13 mph81%30.43 "Hg5 mi
11:53 AM23 °FOvercast.12 mph81%30.43 "Hg10 mi
10:53 AM23 °FOvercast.12 mph81%30.39 "Hg8 mi
9:53 AM23 °FLight snow. Ice fog.15 mph81%30.36 "Hg2 mi
8:53 AM22 °FLight snow. Mostly cloudy.12 mph85%30.35 "Hg8 mi
7:53 AM22 °FLight snow. Ice fog.15 mph82%30.31 "Hg3 mi
6:53 AM21 °FHeavy snow. Low clouds.14 mph88%30.27 "Hg1 mi
5:53 AM21 °FSnow. Ice fog.10 mph92%30.26 "Hg1 mi
Weather by CustomWeather, © 2015

See weather overviewHow to use our weather pages